Home   Weather   Ede   Past weeks
Flag for Netherlands

Past Weather in Ede, Netherlands — Yesterday and Last 2 Weeks

Now
59 °F

Overcast.


Feels Like: 58 °F
Forecast: 69 / 54 °F
Wind: 6 mph from North

Location: Deelen

Current Time: Jul 15, 2019 at 10:33:57 pm

Latest Report: Jul 15, 2019 at 9:55 pm


Visibility: N/A

Pressure: 30.12 "Hg

Humidity: 72%

Dew Point: 50 °F

Location of EdeLocation

Past Weather in Ede — Graph

°F

Ede Temperature Yesterday

Maximum temperature yesterday: 64 °F (at 1:55 pm)
Minimum temperature yesterday: 55 °F (at 5:25 am)
Average temperature yesterday: 60 °F

High & Low Weather Summary for the Past Weeks

 TemperatureHumidityPressure
High77 °F (Jul 5, 2:25 pm)100% (Jul 3, 5:25 am)30.30 "Hg (Jul 3, 5:25 am)
Low41 °F (Jul 4, 4:55 am)30% (Jul 5, 3:25 pm)29.83 "Hg (Jul 6, 8:55 am)
Average61 °F72%30.07 "Hg
* Reported Jun 30 9:25 pm — Jul 15 9:25 pm, Ede. Weather by CustomWeather, © 2019

Note: Actual official high and low records may vary slightly from our data, if they occured in-between our weather recording intervals... More about our weather records

Advertising

Ede Weather History for the Previous 24 Hours

Scroll right to see more
 ConditionsComfort  
Time TempWeatherWind HumidityBarometerVisibility
9:25 pm
Mon, Jul 15
59 °FMore clouds than sun.8 mph72%30.09 "HgN/A
8:55 pm59 °FOvercast.9 mph72%30.09 "HgN/A
8:25 pm61 °FOvercast.9 mph68%30.09 "HgN/A
7:55 pm61 °FBroken clouds.12 mph72%30.09 "HgN/A
7:25 pm63 °FMostly cloudy.13 mph68%30.09 "HgN/A
6:55 pm63 °FMostly cloudy.10 mph68%30.09 "HgN/A
6:25 pm64 °FBroken clouds.9 mph64%30.09 "HgN/A
5:55 pm64 °FMostly cloudy.10 mph64%30.09 "HgN/A
5:25 pm64 °FBroken clouds.9 mph64%30.09 "HgN/A
4:55 pm64 °FMostly cloudy.8 mph64%30.12 "HgN/A
4:25 pm64 °FMostly cloudy.9 mph64%30.12 "HgN/A
3:55 pm64 °FBroken clouds.8 mph60%30.12 "HgN/A
3:25 pm64 °FPartly sunny.7 mph64%30.12 "HgN/A
2:55 pm63 °FMore clouds than sun.7 mph64%30.12 "HgN/A
2:25 pm63 °FMore clouds than sun.8 mph64%30.12 "HgN/A
1:55 pm63 °FOvercast.7 mph64%30.12 "HgN/A
1:25 pm61 °FCloudy.8 mph63%30.12 "HgN/A
12:55 pm59 °FMore clouds than sun.7 mph77%30.12 "HgN/A
12:25 pm59 °FMostly cloudy.7 mph77%30.12 "HgN/A
11:55 am57 °FLight rain. Cloudy.8 mph82%30.12 "HgN/A
11:25 am59 °FMostly cloudy.7 mph77%30.12 "HgN/A
10:55 am57 °FMore clouds than sun.2 mph82%30.12 "HgN/A
10:25 am57 °FOvercast.2 mph82%30.12 "HgN/A
9:55 am55 °FDrizzle. More clouds than sun.3 mph88%30.12 "Hg4 mi
9:25 am55 °FDrizzle. Overcast.3 mph82%30.12 "Hg3 mi
8:55 am55 °FFog.6 mph82%30.12 "Hg5 mi
8:25 am55 °FFog.6 mph88%30.12 "Hg6 mi
7:55 am55 °FOvercast.5 mph88%30.12 "HgN/A
7:25 am55 °FOvercast.5 mph88%30.12 "HgN/A
6:55 am55 °FOvercast.3 mph88%30.12 "HgN/A
6:25 am55 °FOvercast.2 mph88%30.12 "HgN/A
5:55 am55 °FOvercast.3 mph88%30.12 "HgN/A
5:25 am55 °FOvercast.2 mph88%30.09 "HgN/A
4:55 am55 °FOvercast.1 mph88%30.09 "HgN/A
4:25 am55 °FOvercast.5 mph88%30.09 "HgN/A
3:55 am55 °FOvercast.8 mph94%30.12 "HgN/A
3:25 am57 °FOvercast.5 mph82%30.12 "HgN/A
2:55 am57 °FMostly cloudy.1 mph82%30.12 "HgN/A
2:25 am57 °FOvercast.2 mph82%30.12 "HgN/A
1:55 am57 °FOvercast.2 mph82%30.12 "HgN/A
1:25 am57 °FOvercast.2 mph77%30.12 "HgN/A
12:55 am57 °FOvercast.3 mph77%30.12 "HgN/A
12:25 am57 °FMostly cloudy.2 mph82%30.12 "HgN/A
11:55 pm
Sun, Jul 14
57 °FOvercast.3 mph82%30.12 "HgN/A
11:25 pm59 °FOvercast.3 mph77%30.12 "HgN/A
10:55 pm59 °FMostly cloudy.5 mph77%30.15 "HgN/A
10:25 pm59 °FOvercast.6 mph77%30.12 "HgN/A
Weather by CustomWeather, © 2019

See weather overview

LIVE PARTIAL LUNAR ECLIPSE – Watch the eclipse as it happens